Location: Hurecourt
(47.9030°N, 6.0653°E)
Time: 09:38:53
(UTC+00:00)

Cosmos 468 Rocket - Pass Details

Date: 14 July 2020
Orbit: 743 x 780 km, 74.0° (Epoch: 05 August)

Event Time Altitude Azimuth Distance (km) Brightness Sun altitude
Rises 02:33:06 0° 335° (NNW) 3,267 7.6 -10.6°
Reaches altitude 10° 02:35:29 10° 334° (NNW) 2,338 6.8 -10.3°
Maximum altitude 02:40:47 75° 251° (WSW) 812 4.0 -9.7°
Drops below altitude 10° 02:46:05 10° 166° (SSE) 2,328 6.2 -9.1°
Sets 02:48:27 0° 165° (SSE) 3,251 6.9 -8.9°
